CW6245 Weather Reports


time (UTC)temp
C
wind
direction
speed
KPH
gust
KPH
rain 1hr
cm
rain 24hr
cm
rain mn
cm
humidity
%
barometer
mb
20260906030751 12 178 9.7 20.9 0.00 0.00 0.00 83 733.1
20260906030245 12 183 12.9 17.7 0.00 0.00 0.00 83 733.1
20260906025748 12 180 11.3 19.3 0.00 0.00 0.00 84 733.1
20260906025245 12 182 14.5 22.5 0.00 0.00 0.00 84 732.8
20260906024745 12 184 14.5 20.9 0.00 0.00 0.00 84 732.8
20260906024245 12 188 12.9 22.5 0.00 0.00 0.00 84 732.8
20260906023745 12 182 12.9 22.5 0.00 0.00 0.00 84 733.1
20260906023251 12 185 12.9 16.1 0.00 0.00 0.00 84 732.8
20260906022745 12 186 12.9 16.1 0.00 0.00 0.00 84 732.8
20260906022245 12 184 11.3 14.5 0.00 0.00 0.00 83 733.1
20260906021745 12 186 8.0 11.3 0.00 0.00 0.00 83 733.1
20260906021245 12 185 6.4 9.7 0.00 0.00 0.00 82 733.1
20260906020745 12 186 6.4 12.9 0.00 0.00 0.00 82 733.1
20260906020245 13 184 9.7 14.5 0.00 0.00 0.00 81 733.1
20260906015745 13 185 11.3 17.7 0.00 0.00 0.00 81 733.1
20260906015245 13 186 11.3 16.1 0.00 0.00 0.00 80 733.1
20260906014745 13 188 9.7 16.1 0.00 0.00 0.00 80 733.1
20260906014245 13 191 9.7 14.5 0.00 0.00 0.00 80 733.1
20260906013745 13 188 9.7 14.5 0.00 0.00 0.00 79 733.1
20260906013245 13 185 4.8 9.7 0.00 0.00 0.00 79 733.1
20260906012748 13 199 4.8 9.7 0.00 0.00 0.00 79 733.1
20260906012248 13 22 0.0 4.8 0.00 0.00 0.00 82 733.1
20260906011746 14 180 1.6 4.8 0.00 0.00 0.00 80 733.1
20260906011245 14 171 0.0 3.2 0.00 0.00 0.00 80 733.1
20260906010745 14 222 0.0 4.8 0.00 0.00 0.00 78 733.1
20260906010248 14 216 1.6 8.0 0.00 0.00 0.00 82 733.1
20260906005745 14 200 4.8 8.0 0.00 0.00 0.00 76 733.1
20260906005245 14 204 1.6 6.4 0.00 0.00 0.00 76 733.1
20260906004745 14 202 3.2 9.7 0.00 0.00 0.00 77 733.1
20260906004246 14 195 4.8 9.7 0.00 0.00 0.00 77 733.1
20260906003745 14 202 3.2 9.7 0.00 0.00 0.00 76 733.1
20260906003248 14 207 3.2 12.9 0.00 0.00 0.00 76 733.1
20260906002745 15 217 1.6 9.7 0.00 0.00 0.00 76 733.1
20260906002245 14 218 1.6 8.0 0.00 0.00 0.00 77 733.1
20260906001745 15 192 4.8 8.0 0.00 0.00 0.00 75 733.1
20260906001245 15 190 3.2 8.0 0.00 0.00 0.00 74 733.1
20260906000745 14 225 1.6 12.9 0.00 0.00 0.00 75 733.1
20260906000245 14 194 8.0 14.5 0.00 0.00 0.00 74 733.1
20260905235745 15 190 8.0 17.7 0.00 0.00 0.00 75 733.1
20260905235245 15 192 8.0 16.1 0.00 0.00 0.00 74 733.1
20260905234745 15 202 8.0 19.3 0.00 0.00 0.00 75 733.1
20260905234248 15 195 9.7 19.3 0.00 0.00 0.00 72 733.1
20260905233745 15 217 3.2 16.1 0.00 0.00 0.00 74 733.1
20260905233245 15 200 8.0 19.3 0.00 0.00 0.00 72 733.1
20260905232745 15 189 11.3 20.9 0.00 0.00 0.00 71 733.1
20260905232245 15 182 8.0 17.7 0.00 0.00 0.00 72 733.1
20260905231745 15 189 11.3 22.5 0.00 0.00 0.00 72 733.1
20260905231245 15 186 12.9 19.3 0.00 0.00 0.00 72 733.1
20260905230745 15 190 11.3 22.5 0.00 0.00 0.00 70 733.1
20260905230245 16 190 8.0 19.3 0.00 0.00 0.00 66 733.1
20260905225745 16 195 8.0 19.3 0.00 0.00 0.00 69 733.1
20260905225245 16 196 6.4 17.7 0.00 0.00 0.00 67 733.1
20260905224745 15 213 4.8 16.1 0.00 0.00 0.00 70 733.1
20260905224245 15 165 4.8 12.9 0.00 0.00 0.00 72 733.1
20260905223745 15 200 4.8 16.1 0.00 0.00 0.00 77 733.1
20260905223245 15 205 4.8 11.3 0.00 0.00 0.00 75 733.1
20260905222745 15 177 1.6 11.3 0.00 0.00 0.00 74 733.1
20260905222245 16 194 3.2 9.7 0.00 0.00 0.00 75 733.5
20260905221745 16 197 4.8 14.5 0.00 0.00 0.00 74 733.5
20260905221245 16 202 6.4 14.5 0.00 0.00 0.00 72 733.5
20260905220746 16 143 1.6 9.7 0.00 0.00 0.00 72 733.5
20260905220251 16 203 4.8 9.7 0.00 0.00 0.00 74 733.5
20260905215745 16 248 1.6 17.7 0.00 0.00 0.00 76 733.5
20260905215248 16 176 4.8 19.3 0.00 0.00 0.00 73 733.5
20260905214745 15 206 6.4 25.7 0.00 0.00 0.00 76 733.5
20260905214245 15 195 4.8 24.1 0.00 0.00 0.00 78 733.5
20260905213745 14 196 6.4 20.9 0.00 0.00 0.00 83 733.5
20260905213245 14 204 9.7 20.9 0.00 0.00 0.00 82 733.5
20260905212745 15 197 6.4 20.9 0.00 0.00 0.00 82 733.5
20260905212245 14 204 6.4 19.3 0.00 0.00 0.00 82 733.5
20260905211753 15 190 11.3 20.9 0.00 0.00 0.00 80 733.8
20260905211245 15 196 8.0 14.5 0.00 0.00 0.00 79 733.8
20260905210745 15 191 6.4 14.5 0.00 0.00 0.00 78 733.8
20260905210245 15 187 6.4 19.3 0.00 0.00 0.00 78 733.8
20260905205751 15 204 6.4 20.9 0.00 0.00 0.00 80 733.8
20260905205248 15 202 9.7 22.5 0.00 0.00 0.00 79 733.8
20260905204745 16 198 11.3 22.5 0.00 0.00 0.00 74 733.8
20260905204245 15 164 3.2 22.5 0.00 0.00 0.00 78 733.8
20260905203745 15 170 4.8 19.3 0.00 0.00 0.00 77 733.8
20260905203245 15 191 6.4 22.5 0.00 0.00 0.00 79 733.8
20260905202748 15 179 9.7 17.7 0.00 0.00 0.00 75 733.8
20260905202245 15 202 4.8 16.1 0.00 0.00 0.00 78 733.8
20260905201745 15 197 4.8 17.7 0.00 0.00 0.00 77 733.8
20260905201247 15 184 6.4 16.1 0.00 0.00 0.00 75 733.8
20260905200745 15 196 4.8 12.9 0.00 0.00 0.00 79 733.8
20260905200245 16 301 1.6 24.1 0.00 0.00 0.00 76 733.8
20260905195745 16 192 9.7 24.1 0.00 0.00 0.00 72 733.8
20260905195245 16 201 4.8 12.9 0.00 0.00 0.00 75 733.8
20260905194748 15 207 3.2 17.7 0.00 0.00 0.00 78 733.8
20260905194245 15 193 4.8 17.7 0.00 0.00 0.00 78 734.2
20260905193745 15 190 11.3 16.1 0.00 0.00 0.00 79 733.8
20260905193248 15 196 6.4 19.3 0.00 0.00 0.00 79 734.2
20260905192748 15 194 8.0 20.9 0.00 0.00 0.00 80 734.2
20260905192248 15 197 9.7 24.1 0.00 0.00 0.00 80 734.2
20260905191748 15 203 8.0 17.7 0.00 0.00 0.00 81 734.2
20260905191245 15 177 9.7 22.5 0.00 0.00 0.00 80 734.2
20260905190745 16 175 8.0 16.1 0.00 0.00 0.00 78 734.2
20260905190248 15 181 8.0 16.1 0.00 0.00 0.00 83 734.2
20260905185745 15 168 8.0 14.5 0.00 0.00 0.00 86 734.2
20260905185245 15 189 9.7 14.5 0.00 0.00 0.00 84 734.2
20260905184745 13 185 8.0 14.5 0.00 0.00 0.00 86 734.2
20260905184248 14 172 9.7 12.9 0.00 0.00 0.00 83 734.2
20260905183745 15 197 3.2 11.3 0.00 0.00 0.00 82 734.5
20260905183248 14 176 8.0 16.1 0.00 0.00 0.00 83 734.5
20260905182745 14 189 9.7 16.1 0.00 0.00 0.00 82 734.2
20260905182245 14 187 8.0 17.7 0.00 0.00 0.00 83 734.5
20260905181745 15 166 11.3 17.7 0.00 0.00 0.00 81 734.5
20260905181251 15 176 8.0 19.3 0.00 0.00 0.00 80 734.5
20260905180748 15 188 9.7 17.7 0.00 0.00 0.00 81 734.2
20260905180245 15 187 11.3 17.7 0.00 0.00 0.00 80 734.2
20260905175745 14 175 8.0 14.5 0.00 0.00 0.00 82 734.2
20260905175245 15 172 9.7 16.1 0.00 0.00 0.00 81 734.2
20260905174745 15 189 6.4 17.7 0.00 0.00 0.00 82 734.2
20260905174245 15 183 6.4 14.5 0.00 0.00 0.00 81 734.2
20260905173745 14 169 6.4 12.9 0.00 0.00 0.00 83 734.2
20260905173245 14 178 6.4 11.3 0.00 0.00 0.00 83 734.2
20260905172745 14 171 6.4 16.1 0.00 0.00 0.00 83 734.2
20260905172248 14 169 6.4 12.9 0.00 0.00 0.00 83 734.2
20260905171745 14 186 6.4 12.9 0.00 0.00 0.00 84 733.8
20260905171248 15 189 6.4 12.9 0.00 0.00 0.00 81 733.8
20260905170745 15 191 4.8 12.9 0.00 0.00 0.00 81 733.8
20260905170247 15 159 4.8 17.7 0.00 0.00 0.00 82 733.8
20260905165748 15 131 3.2 14.5 0.00 0.00 0.00 81 733.8
20260905165245 14 169 8.0 14.5 0.00 0.00 0.00 86 733.8
20260905164751 13 191 9.7 14.5 0.00 0.00 0.00 89 733.8
20260905164245 13 179 6.4 16.1 0.00 0.00 0.00 89 733.8
20260905163745 13 179 6.4 19.3 0.00 0.00 0.00 89 733.8
20260905163245 13 175 8.0 17.7 0.00 0.00 0.00 91 733.8
20260905162748 13 193 6.4 14.5 0.00 0.00 0.00 93 733.8
20260905162246 12 186 8.0 14.5 0.00 0.00 0.00 94 733.8
20260905161745 12 184 8.0 12.9 0.00 0.00 0.00 95 733.8
20260905161245 12 191 6.4 14.5 0.00 0.00 0.00 96 733.8
20260905160745 12 186 6.4 11.3 0.00 0.00 0.00 95 733.8
20260905160249 12 175 9.7 14.5 0.00 0.00 0.00 95 733.8
20260905155746 12 187 8.0 16.1 0.00 0.00 0.00 96 733.8
20260905155249 12 165 8.0 12.9 0.00 0.00 0.00 94 733.8
20260905154745 12 170 8.0 14.5 0.00 0.00 0.00 95 733.8
20260905154248 12 177 9.7 16.1 0.00 0.00 0.00 96 733.5
20260905153748 12 181 11.3 17.7 0.00 0.00 0.00 95 733.5
20260905153245 12 174 11.3 16.1 0.00 0.00 0.00 97 733.5
20260905152745 11 180 9.7 17.7 0.00 0.00 0.00 99 733.5
20260905152245 11 176 11.3 16.1 0.00 0.00 0.00 100 733.5
20260905151747 11 177 11.3 17.7 0.00 0.00 0.00 100 733.5
20260905151245 11 176 11.3 17.7 0.00 0.00 0.00 100 733.5
20260905150745 11 174 12.9 17.7 0.00 0.00 0.00 100 733.5
20260905150245 11 180 12.9 19.3 0.00 0.00 0.00 100 733.5
20260905145745 11 179 12.9 19.3 0.00 0.00 0.00 100 733.5
20260905145245 11 182 12.9 19.3 0.00 0.00 0.00 100 733.5
20260905144745 11 180 14.5 19.3 0.00 0.00 0.00 100 733.1
20260905144248 11 177 14.5 19.3 0.00 0.00 0.00 100 733.1
20260905143745 11 174 14.5 19.3 0.00 0.00 0.00 100 733.1
20260905143245 11 182 12.9 20.9 0.00 0.00 0.00 100 733.1
20260905142745 11 172 14.5 20.9 0.00 0.00 0.00 100 733.1
20260905142245 11 177 12.9 20.9 0.00 0.00 0.00 100 733.1
20260905141745 11 176 14.5 20.9 0.00 0.00 0.00 100 733.1
20260905141245 11 182 16.1 22.5 0.00 0.00 0.00 99 733.1
20260905140745 11 181 14.5 19.3 0.00 0.00 0.00 99 732.8
20260905140248 11 182 16.1 22.5 0.00 0.00 0.00 99 732.8
20260905135745 11 182 16.1 22.5 0.00 0.00 0.00 99 732.8
20260905135245 11 181 14.5 25.7 0.00 0.00 0.00 98 732.8
20260905134745 11 181 17.7 25.7 0.00 0.00 0.00 98 732.8
20260905134245 11 180 16.1 22.5 0.00 0.00 0.00 98 732.8
20260905133745 11 183 17.7 24.1 0.00 0.00 0.00 98 732.5
20260905133245 11 183 14.5 24.1 0.00 0.00 0.00 98 732.5
20260905132745 11 183 14.5 22.5 0.00 0.00 0.00 98 732.5
20260905132245 11 182 14.5 22.5 0.00 0.00 0.00 98 732.5
20260905131745 11 183 14.5 20.9 0.00 0.00 0.00 99 732.5
20260905131248 10 182 12.9 19.3 0.00 0.00 0.00 100 732.5
20260905130748 10 182 12.9 17.7 0.00 0.00 0.00 100 732.1
20260905130245 10 184 14.5 19.3 0.00 0.00 0.00 100 732.1
20260905125745 10 184 14.5 19.3 0.00 0.00 0.00 100 732.1
20260905125245 10 184 14.5 17.7 0.00 0.00 0.00 100 732.1
20260905124745 10 183 14.5 20.9 0.00 0.00 0.00 100 732.1
20260905124248 10 184 16.1 22.5 0.00 0.00 0.00 100 732.1
20260905123745 10 183 17.7 20.9 0.00 0.00 0.00 100 732.1
20260905123245 11 183 16.1 19.3 0.00 0.00 0.00 100 732.1
20260905122745 11 181 14.5 19.3 0.00 0.00 0.00 100 732.1
20260905122245 11 179 12.9 19.3 0.00 0.00 0.00 99 732.1
20260905121746 11 179 12.9 20.9 0.00 0.00 0.00 99 732.1
20260905121247 11 183 12.9 17.7 0.00 0.00 0.00 98 732.1
20260905120745 11 182 12.9 14.5 0.00 0.00 0.00 98 732.1
20260905120245 11 178 11.3 16.1 0.00 0.00 0.00 97 732.1
20260905115745 11 181 11.3 14.5 0.00 0.00 0.00 97 732.1
20260905115245 11 180 11.3 14.5 0.00 0.00 0.00 97 732.1
20260905114745 11 182 11.3 12.9 0.00 0.00 0.00 97 732.1
20260905114245 11 183 11.3 14.5 0.00 0.00 0.00 97 732.1
20260905113745 11 185 12.9 14.5 0.00 0.00 0.00 97 731.8
20260905113245 11 182 11.3 16.1 0.00 0.00 0.00 96 732.1
20260905112745 11 183 12.9 16.1 0.00 0.00 0.00 96 732.1
20260905112248 11 186 11.3 16.1 0.00 0.00 0.00 96 732.1
20260905111745 11 188 11.3 16.1 0.00 0.00 0.00 95 732.1
20260905111245 11 187 11.3 19.3 0.00 0.00 0.00 94 732.1
20260905110748 11 184 12.9 19.3 0.00 0.00 0.00 93 732.1
20260905110245 11 186 12.9 17.7 0.00 0.00 0.00 94 732.1
20260905105748 11 183 14.5 19.3 0.00 0.00 0.00 94 732.1
20260905105248 11 185 14.5 17.7 0.00 0.00 0.00 94 732.1
20260905104748 11 184 12.9 17.7 0.00 0.00 0.00 94 732.1
20260905104245 11 184 12.9 16.1 0.00 0.00 0.00 95 732.1
20260905103745 11 183 11.3 17.7 0.00 0.00 0.00 94 732.1
20260905103248 11 185 14.5 20.9 0.00 0.00 0.00 94 732.1
20260905102745 11 186 14.5 17.7 0.00 0.00 0.00 94 732.1
20260905102245 11 184 14.5 19.3 0.00 0.00 0.00 94 732.1
20260905101745 11 185 14.5 20.9 0.00 0.00 0.00 94 732.1
20260905101245 11 184 14.5 20.9 0.00 0.00 0.00 93 732.1
20260905100745 11 186 14.5 20.9 0.00 0.00 0.00 93 732.1
20260905100245 11 186 16.1 19.3 0.00 0.00 0.00 93 732.1
20260905095745 11 187 16.1 19.3 0.00 0.00 0.00 93 732.1
20260905095245 11 186 14.5 20.9 0.00 0.00 0.00 93 732.1
20260905094748 11 187 14.5 20.9 0.00 0.00 0.00 92 732.1
20260905094245 11 187 16.1 19.3 0.00 0.00 0.00 93 732.1
20260905093745 11 185 14.5 20.9 0.00 0.00 0.00 92 732.1
20260905093245 11 185 16.1 20.9 0.00 0.00 0.00 92 732.1
20260905092748 11 186 14.5 19.3 0.00 0.00 0.00 91 732.1
20260905092245 11 184 16.1 20.9 0.00 0.00 0.00 91 732.1
20260905091745 11 186 17.7 22.5 0.00 0.00 0.00 91 732.1
20260905091245 11 187 14.5 22.5 0.00 0.00 0.00 91 732.5
20260905090745 11 182 14.5 22.5 0.00 0.00 0.00 90 732.1
20260905090245 11 186 16.1 22.5 0.00 0.00 0.00 90 732.1
20260905085745 11 182 12.9 24.1 0.00 0.00 0.00 90 732.5
20260905085245 11 176 14.5 22.5 0.00 0.00 0.00 89 732.5
20260905084745 11 186 17.7 25.7 0.00 0.00 0.00 89 732.5
20260905084245 11 181 16.1 24.1 0.00 0.00 0.00 89 732.5
20260905083748 11 180 16.1 24.1 0.00 0.00 0.00 89 732.5
20260905083245 11 182 17.7 25.7 0.00 0.00 0.00 88 732.5
20260905082745 11 179 16.1 22.5 0.00 0.00 0.00 88 732.5
20260905082245 11 179 14.5 22.5 0.00 0.00 0.00 88 732.8
20260905081745 11 180 16.1 25.7 0.00 0.00 0.00 88 732.5
20260905081245 11 181 16.1 22.5 0.00 0.00 0.00 89 732.8
20260905080748 11 176 14.5 20.9 0.00 0.00 0.00 88 732.8
20260905080245 11 178 14.5 20.9 0.00 0.00 0.00 88 732.8
20260905075745 11 180 12.9 20.9 0.00 0.00 0.00 88 732.8
20260905075248 11 174 14.5 20.9 0.00 0.00 0.00 88 732.8
20260905074748 11 177 14.5 20.9 0.00 0.00 0.00 87 732.8
20260905074245 11 180 16.1 24.1 0.00 0.00 0.00 88 732.8
20260905073748 11 179 16.1 24.1 0.00 0.00 0.00 88 732.8
20260905073245 11 180 16.1 25.7 0.00 0.00 0.00 88 732.8
20260905072745 11 181 19.3 25.7 0.00 0.00 0.00 87 732.8
20260905072245 11 180 17.7 25.7 0.00 0.00 0.00 87 732.8
20260905071748 11 181 16.1 22.5 0.00 0.00 0.00 86 732.8
20260905071245 11 176 14.5 22.5 0.00 0.00 0.00 84 732.8
20260905070745 11 180 16.1 24.1 0.00 0.00 0.00 83 732.8
20260905070248 11 177 14.5 20.9 0.00 0.00 0.00 85 732.8
20260905065745 11 178 16.1 20.9 0.00 0.00 0.00 84 732.8
20260905065245 11 176 14.5 20.9 0.00 0.00 0.00 80 732.8
20260905064748 12 175 14.5 24.1 0.00 0.00 0.00 78 732.8
20260905064245 12 175 16.1 24.1 0.00 0.00 0.00 77 732.8
20260905063745 12 176 14.5 20.9 0.00 0.00 0.00 76 732.8
20260905063245 12 175 16.1 24.1 0.00 0.00 0.00 74 732.8
20260905062745 12 176 14.5 22.5 0.00 0.00 0.00 70 732.8
20260905062246 12 172 16.1 24.1 0.00 0.00 0.00 69 732.8
20260905061745 12 175 16.1 24.1 0.00 0.00 0.00 66 732.8
20260905061245 12 174 16.1 22.5 0.00 0.00 0.00 65 732.8
20260905060745 11 177 14.5 24.1 0.00 0.00 0.00 64 732.8
20260905060245 12 173 16.1 24.1 0.00 0.00 0.00 63 732.8
20260905055745 12 179 16.1 24.1 0.00 0.00 0.00 63 732.8
20260905055253 11 182 12.9 19.3 0.00 0.00 0.00 63 732.8
20260905054745 12 173 14.5 24.1 0.00 0.00 0.00 63 732.8
20260905054245 12 176 16.1 22.5 0.00 0.00 0.00 63 732.8
20260905053751 11 171 14.5 20.9 0.00 0.00 0.00 63 732.8
20260905053246 12 174 14.5 20.9 0.00 0.00 0.00 63 732.8
20260905052745 12 178 14.5 24.1 0.00 0.00 0.00 63 732.8
20260905052245 12 173 14.5 20.9 0.00 0.00 0.00 63 733.1
20260905051748 12 176 11.3 17.7 0.00 0.00 0.00 63 733.1
20260905051245 12 174 12.9 19.3 0.00 0.00 0.00 62 733.1
20260905050745 11 172 12.9 17.7 0.00 0.00 0.00 65 732.8
20260905050245 11 173 12.9 19.3 0.00 0.00 0.00 67 732.8
20260905045745 11 170 14.5 19.3 0.00 0.00 0.00 69 732.8
20260905045250 12 175 12.9 17.7 0.00 0.00 0.00 65 732.8
20260905044745 11 170 14.5 19.3 0.00 0.00 0.00 66 732.8
20260905044245 11 173 12.9 17.7 0.00 0.00 0.00 70 732.8
20260905043750 11 172 14.5 17.7 0.00 0.00 0.00 70 732.8
20260905043248 11 171 12.9 17.7 0.00 0.00 0.00 70 732.8
20260905042745 11 175 12.9 17.7 0.00 0.00 0.00 71 732.8
20260905042245 11 176 11.3 17.7 0.00 0.00 0.00 69 732.8
20260905041748 11 176 12.9 17.7 0.00 0.00 0.00 70 732.8
20260905041245 11 176 12.9 17.7 0.00 0.00 0.00 71 732.5
20260905040745 11 176 12.9 17.7 0.00 0.00 0.00 70 732.5
20260905040245 11 177 12.9 17.7 0.00 0.00 0.00 70 732.5
20260905035745 11 173 12.9 16.1 0.00 0.00 0.00 70 732.5
20260905035245 11 175 11.3 16.1 0.00 0.00 0.00 69 732.5
20260905034745 11 175 11.3 16.1 0.00 0.00 0.00 69 732.5
20260905034248 11 175 11.3 14.5 0.00 0.00 0.00 69 732.5
20260905033753 11 170 11.3 14.5 0.00 0.00 0.00 68 732.5
20260905033247 11 170 9.7 12.9 0.00 0.00 0.00 68 732.5
20260905032745 11 170 9.7 11.3 0.00 0.00 0.00 67 732.5
20260905032245 11 171 8.0 11.3 0.00 0.00 0.00 67 732.1
20260905031745 12 172 8.0 9.7 0.00 0.00 0.00 68 732.5
20260905031245 12 175 6.4 9.7 0.00 0.00 0.00 68 732.5